Regional Weather Roundup
Issued by NWS

Home | Current Version | Previous Version | Text Only | Print | Product List | Glossary Off
Versions: 1 2 3 4 5 6 7 8 9 10 11 12 13 14 15 16 17 18 19 20 21 22 23 24 25 26 27 28 29 30 31 32 33 34 35 36 37 38 39 40 41 42 43 44 45 46 47 48 49 50

000
ASUS43 KDMX 172006
RWRIA

WEATHER ROUNDUP FOR IOWA
NATIONAL WEATHER SERVICE DES MOINES IA
200 PM CST WED JAN 17 2018

NOTE: "FAIR" INDICATES FEW OR NO CLOUDS BELOW 12,000 FEET WITH NO
SIGNIFICANT WEATHER AND/OR OBSTRUCTIONS TO VISIBILITY.

* - THESE STATIONS ARE NOT NWS STATIONS...THUS NOT UNDER NWS
QUALITY CONTROL.  THEY ALSO DO NOT REPORT WEATHER SUCH
AS PRECIPITATION OR FOG.

IAZ001>003-012>014-020>022-031>034-043>046-172100-
   NORTHWEST IOWA

CITY           SKY/WX    TMP DP  RH WIND       PRES   REMARKS
CARROLL *      SUNNY     23  12  63 SW24      30.33F WCI   7
CHEROKEE *     SUNNY     28  14  57 SW16G24   30.29F WCI  15
DENISON *      SUNNY     27  12  54 SW18G25   30.36F WCI  13
LE MARS *      SUNNY     30  14  51 S15G23    30.28F WCI  19
ORANGE CITY *  SUNNY     28  18  64 SW17G23   30.25F WCI  16
SHELDON *      SUNNY     27  16  63 SW15G22   30.22F WCI  15
SIOUX CITY     SUNNY     31  16  54 S12       30.32F WCI  22
SPENCER        SUNNY     27  14  58 SW20      30.24F WCI  13
STORM LAKE *   SUNNY     25  14  63 SW23      30.27F WCI  10
$$

IAZ055>058-069>071-079>083-090>094-172100-
   SOUTHWEST IOWA

CITY           SKY/WX    TMP DP  RH WIND       PRES   REMARKS
ATLANTIC *     SUNNY     23  10  58 SW20      30.41F WCI   8
AUDUBON *      SUNNY     23  10  58 SW9G18    30.38F WCI  13
CLARINDA *     SUNNY     25  10  54 SW17      30.48F WCI  11
COUNCIL BLFS * SUNNY     25  12  58 SW16G22   30.40F WCI  12
CRESTON *      SUNNY     21   9  58 SW18G25   30.43F WCI   6
HARLAN  *      SUNNY     21  10  63 S16       30.42F WCI   7
LAMONI         SUNNY     22   7  52 SW16G26   30.46F WCI   8
RED OAK *      SUNNY     23  10  58 S17       30.45F WCI   9
SHENANDOAH *   SUNNY     23  10  58 SW15      30.47F WCI  10
$$

IAZ047>049-059>061-072>074-084-172100-
   CENTRAL IOWA

CITY           SKY/WX    TMP DP  RH WIND       PRES   REMARKS
AMES           SUNNY     23  13  65 SW16      30.39F WCI  10
ANKENY *       SUNNY     25   9  50 SW12G20   30.42F WCI  14
BOONE *        SUNNY     23  10  58 SW15G24   30.35F WCI  10
CHARITON *     SUNNY     23   9  54 SW14      30.45F WCI  11
DES MOINES     MOSUNNY   24   9  52 SW15      30.41F WCI  11
GRINNELL*      SUNNY     21   9  58 SW17      30.43F WCI   7
KNOXVILLE *    SUNNY     23   7  50 SW15      30.43F WCI  10
MARSHALLTOWN   SUNNY     22   9  57 SW20G28   30.38F WCI   7
NEWTON *       SUNNY     21   9  58 SW15      30.42F WCI   8
PELLA *        SUNNY     25   8  47 SW14G22   30.45F WCI  13
PERRY *          N/A     24  10  54 SW17      30.38F WCI  11
$$

IAZ004>006-015-016-023>025-035-036-172100-
   NORTH CENTRAL IOWA

CITY           SKY/WX    TMP DP  RH WIND       PRES   REMARKS
ALGONA *       SUNNY     27  19  74 SW21G29   30.26F WCI  13
CLARION *      SUNNY     23  14  68 SW18G26   30.30F WCI   9
ESTHERVILLE    SUNNY     24  14  65 SW24G31   30.21F WCI   8
FORT DODGE *   SUNNY     25  12  58 SW18G29   30.31F WCI  11
MASON CITY     SUNNY     23  10  57 SW21G29   30.27F WCI   8
FOREST CITY *    N/A     25  14  63 SW20G25   30.26F WCI  11
WEBSTER CITY * SUNNY     23  10  58 SW20G28   30.30F WCI   8
IOWA FALLS *     N/A     25  12  59 SW20G25   30.34F HAZE    WCI  10
$$

IAZ007>011-017>019-026>030-037>042-050>054-066-172100-
   NORTHEAST IOWA

CITY           SKY/WX    TMP DP  RH WIND       PRES   REMARKS
CEDAR RAPIDS     N/A     21  10  62 SW14      30.41F WCI   8
CHARLES CITY *   N/A     23  10  58 SW15G22   30.30F WCI  10
CLINTON *        N/A     20  12  71 SW16      30.45F WCI   6
DECORAH *        N/A     21   7  53 SW12G21   30.28F WCI   9
DUBUQUE          N/A     19   8  62 SW22      30.36F WCI   2
MONTICELLO *     N/A     21   9  58 W15       30.40F WCI   8
OELWEIN *        N/A     21  10  63 SW16G23   30.35F WCI   7
WATERLOO         N/A     21   8  57 SW16      30.36F WCI   7
$$

IAZ064-065-067-068-078-172100-
   EAST CENTRAL IOWA

CITY           SKY/WX    TMP DP  RH WIND       PRES   REMARKS
DAVENPORT        N/A     21  10  62 SW16      30.47F WCI   7
IOWA CITY        N/A     22   9  57 SW15      30.48F WCI   9
MT. PLEASANT * SUNNY     23  10  58 SW14      30.49F WCI  11
MUSCATINE *      N/A     21  10  63 SW14      30.49F WCI   8
QUAD CITIES      N/A     21  11  65 SW13      30.47F WCI   9
$$

IAZ062-063-075>077-085>089-095>099-172100-
   SOUTHEAST IOWA

CITY           SKY/WX    TMP DP  RH WIND       PRES   REMARKS
BURLINGTON     SUNNY     19   9  65 SW13      30.50F WCI   6
FAIRFIELD *    SUNNY     23   9  54 SW15      30.47F WCI  10
FORT MADISON * SUNNY     21  10  63 S13       30.51F WCI   9
KEOKUK *       SUNNY     21  10  63 SW12G20   30.52F WCI   9
OSKALOOSA *      N/A     23  11  60 W18       30.46F WCI   9
OTTUMWA        SUNNY     23   9  55 SW16      30.46F WCI  10
WASHINGTON *   MIX PCPN  21  12  68 SW12G18   30.48F WCI   9
$$

ABBREVIATIONS USED IN REMARKS
   TC - TEMPERATURES IN CELSIUS
  WCI - WIND CHILL INDEX
   HX - HEAT INDEX
  VSB - VISIBILITY
$$




USA.gov is the U.S. government's official web portal to all federal, state and local government web resources and services.